Gallup, NM

10:12 AM MDT on July 21, 2017 (GMT -0600)
Gallup Municipal

Weather History for KGUP - November, 2013

Change the Weather History Date:

Friday, November 1, 2013

  Actual Average Record
Temperature  
Mean Temperature 39 °F -  
Max Temperature 59 °F 56 °F 73 °F (2008)
Min Temperature 21 °F 23 °F 13 °F (1991)
Degree Days  
Heating Degree Days 26    
Moisture  
Dew Point 22 °F    
Average Humidity 57    
Maximum Humidity 85    
Minimum Humidity 25    
Precipitation  
Precipitation 0.00 in - - ()
Sea Level Pressure  
Sea Level Pressure 30.24 in    
Wind  
Wind Speed 1 mph (NE)    
Max Wind Speed 7 mph    
Max Gust Speed -    
Visibility 10 miles    
Events      
Averages and records for this station are not official NWS values.
T = Trace of Precipitation, MM = Missing Value Source: NWS Daily Summary

Daily Weather History Graph

Daily Weather History Graph

Search for Another Location

Airport or City:

Trip Planner

Search our weather history database for the weather conditions in past years. The results will help you decide how hot, cold, wet, or windy it might be!

Date:

Astronomy

Nov. 01, 2013 Rise Set
Actual Time 7:37 AM MDT 6:19 PM MDT
Civil Twilight 7:10 AM MDT 6:46 PM MDT
Nautical Twilight 6:40 AM MDT 7:16 PM MDT
Astronomical Twilight 6:10 AM MDT 7:45 PM MDT
Moon 5:36 AM MDT (11/1) 5:11 PM MDT (11/1)
Length of Visible Light 11h 35m
Length of Day
10h 42m
Waning Crescent, 4% of the Moon is Illuminated
Nov 1
Waning Crescent
Nov 3
New
Nov 9
First Quarter
Nov 17
Full
Nov 25
Last Quarter

Hourly Weather History & Observations

Time (MDT) Temp. Windchill Dew Point Humidity Pressure Visibility Wind Dir Wind Speed Gust Speed Precip Events Conditions
12:53 AM 28.9 °F - 21.9 °F 75% 30.15 in 10.0 mi Calm Calm - N/A   Clear
1:53 AM 26.1 °F - 21.0 °F 81% 30.14 in 10.0 mi Calm Calm - N/A   Clear
2:53 AM 25.0 °F - 19.9 °F 81% 30.17 in 10.0 mi Calm Calm - N/A   Clear
3:53 AM 25.0 °F - 19.9 °F 81% 30.17 in 10.0 mi Calm Calm - N/A   Clear
4:53 AM 23.0 °F - 19.0 °F 85% 30.17 in 10.0 mi Calm Calm - N/A   Clear
5:53 AM 21.9 °F - 18.0 °F 85% 30.22 in 10.0 mi Calm Calm - N/A   Clear
6:53 AM 21.0 °F - 17.1 °F 85% 30.26 in 10.0 mi Calm Calm - N/A   Clear
7:53 AM 21.0 °F - 17.1 °F 85% 30.33 in 10.0 mi Calm Calm - N/A   Clear
8:53 AM 30.0 °F - 23.0 °F 75% 30.32 in 10.0 mi Calm Calm - N/A   Clear
9:53 AM 39.9 °F - 26.1 °F 58% 30.31 in 10.0 mi Calm Calm - N/A   Clear
10:53 AM 46.0 °F 43.9 °F 26.1 °F 46% 30.30 in 10.0 mi WNW 4.6 mph - N/A   Clear
11:53 AM 48.9 °F - 25.0 °F 39% 30.24 in 10.0 mi Variable 3.5 mph - N/A   Clear
12:53 PM 51.1 °F - 24.1 °F 35% 30.24 in 10.0 mi Calm Calm - N/A   Clear
1:53 PM 55.0 °F - 24.1 °F 30% 30.19 in 10.0 mi NE 3.5 mph - N/A   Clear
2:53 PM 55.9 °F - 23.0 °F 28% 30.17 in 10.0 mi Variable 5.8 mph - N/A   Clear
3:53 PM 57.0 °F - 21.0 °F 25% 30.17 in 10.0 mi Calm Calm - N/A   Clear
4:53 PM 57.0 °F - 21.0 °F 25% 30.19 in 10.0 mi Variable 3.5 mph - N/A   Clear
5:53 PM 55.9 °F - 23.0 °F 28% 30.21 in 10.0 mi NNE 6.9 mph - N/A   Clear
6:53 PM 48.9 °F - 24.1 °F 38% 30.28 in 10.0 mi ENE 5.8 mph - N/A   Clear
7:53 PM 41.0 °F - 23.0 °F 49% 30.36 in 10.0 mi Calm Calm - N/A   Clear
8:53 PM 37.0 °F 34.5 °F 21.9 °F 54% 30.33 in 10.0 mi NE 3.5 mph - N/A   Clear
9:53 PM 36.0 °F - 23.0 °F 59% 30.28 in 10.0 mi Calm Calm - N/A   Clear
10:53 PM 36.0 °F 33.3 °F 23.0 °F 59% 30.24 in 10.0 mi ENE 3.5 mph - N/A   Clear
11:53 PM 32.0 °F - 21.9 °F 66% 30.25 in 10.0 mi Calm Calm - N/A   Clear